FW8671 Weather Reports


Display with metric or nautical units.
time (UTC)temp
F
wind
direction
speed
MPH
gust
MPH
rain 1hr
in
rain 24hr
in
rain mn
in
humidity
%
barometer
mb
20260504185715 60 223 12.0 22.0 0.00 0.00 0.00 72 1013.4
20260504184729 60 242 11.0 22.0 0.00 0.00 0.00 71 1013.8
20260504183751 60 218 10.0 21.0 0.00 0.00 0.00 71 1013.9
20260504182754 60 205 12.0 22.0 0.00 0.00 0.00 72 1013.8
20260504181727 60 215 11.0 22.0 0.00 0.00 0.00 73 1014.1
20260504180721 60 221 10.0 21.0 0.00 0.00 0.00 73 1014.1
20260504175741 61 220 9.0 20.0 0.00 0.00 0.00 73 1014.1
20260504174736 60 181 10.0 21.0 0.00 0.00 0.00 74 1014.1
20260504173708 59 238 10.0 23.0 0.00 0.00 0.00 74 1014.2
20260504172718 58 213 12.0 23.0 0.00 0.00 0.00 75 1014.2
20260504170533 59 216 11.0 19.0 0.00 0.00 0.00 74 1014.6
20260504160327 59 207 9.0 17.0 0.00 0.00 0.00 71 1015.0
20260504150254 60 230 7.0 19.0 0.00 0.00 0.00 63 1015.6
20260504130810 57 249 9.0 18.0 0.00 0.00 0.00 64 1016.2
20260504110521 52 275 4.0 12.0 0.00 0.00 0.00 66 1016.2
20260504100315 51 222 3.0 8.0 0.00 0.00 0.00 67 1016.0
20260504081027 51 245 2.0 5.0 0.00 0.00 0.00 65 1015.5
20260504045509 52 262 3.0 7.0 0.00 0.00 0.00 64 1014.7
20260504043325 52 236 2.0 6.0 0.00 0.00 0.00 63 1015.0
20260504041135 52 252 1.0 4.0 0.00 0.00 0.00 63 1014.5
20260504040109 51 266 1.0 3.0 0.00 0.00 0.00 64 1014.6
20260504035102 52 257 2.0 4.0 0.00 0.00 0.00 64 1014.6
20260504034114 52 269 2.0 7.0 0.00 0.00 0.00 64 1014.4
20260504033103 52 277 2.0 7.0 0.00 0.00 0.00 63 1014.4
20260504030859 52 243 1.0 6.0 0.00 0.00 0.00 61 1014.3
20260504025848 52 261 1.0 3.0 0.00 0.00 0.00 61 1014.3
20260504024853 52 266 1.0 5.0 0.00 0.00 0.00 61 1014.3
20260504021613 51 266 0.0 0.0 0.00 0.00 0.00 52 1014.3
20260504020638 51 266 0.0 0.0 0.00 0.00 0.00 52 1014.3
20260504015703 52 265 0.0 0.0 0.00 0.00 0.00 53 1014.3
20260504013520 53 266 0.0 0.0 0.00 0.00 0.00 46 1014.1
20260504012535 54 266 0.0 1.0 0.00 0.00 0.00 45 1014.0
20260504011554 54 266 0.0 0.0 0.00 0.00 0.00 44 1013.9
20260504010556 54 266 0.0 1.0 0.00 0.00 0.00 42 1013.8
20260504005540 55 266 0.0 1.0 0.00 0.00 0.00 40 1013.6
20260504004509 56 266 0.0 2.0 0.00 0.00 0.00 38 1013.4
20260504003502 56 266 1.0 2.0 0.00 0.00 0.00 38 1013.3
20260504002451 56 265 0.0 1.0 0.00 0.00 0.00 36 1013.2
20260504001449 57 265 1.0 5.0 0.00 0.00 0.00 36 1013.1
20260503235340 58 295 2.0 8.0 0.00 0.00 0.00 34 1012.9
20260503234329 58 299 3.0 8.0 0.00 0.00 0.00 33 1012.7
20260503233317 58 275 3.0 12.0 0.00 0.00 0.00 32 1012.6
20260503232312 59 273 6.0 15.0 0.00 0.00 0.00 32 1012.5
20260503231319 59 289 6.0 15.0 0.00 0.00 0.00 31 1012.4
20260503230338 59 323 7.0 16.0 0.00 0.00 0.00 31 1012.4
20260503225343 59 324 8.0 21.0 0.00 0.00 0.00 31 1012.3
20260503224351 59 321 9.0 21.0 0.00 0.00 0.00 31 1012.3
20260503223344 60 324 7.0 15.0 0.00 0.00 0.00 31 1012.3
20260503222348 60 248 6.0 17.0 0.00 0.00 0.00 32 1012.1
20260503221335 60 312 7.0 17.0 0.00 0.00 0.00 32 1012.1
20260503215218 59 325 6.0 15.0 0.00 0.00 0.00 33 1012.1
20260503214201 59 324 6.0 17.0 0.00 0.00 0.00 34 1012.1
20260503213133 59 325 7.0 20.0 0.00 0.00 0.00 34 1011.9
20260503212140 59 325 10.0 21.0 0.00 0.00 0.00 34 1011.9
20260503211137 59 325 9.0 21.0 0.00 0.00 0.00 34 1011.9
20260503210157 58 294 10.0 20.0 0.00 0.00 0.00 35 1011.8
20260503205145 58 325 8.0 23.0 0.00 0.00 0.00 35 1011.9
20260503204155 57 325 9.0 23.0 0.00 0.00 0.00 38 1011.8
20260503203155 57 316 8.0 19.0 0.00 0.00 0.00 37 1011.8
20260503202123 57 325 9.0 24.0 0.00 0.00 0.00 38 1011.9
20260503201054 57 289 11.0 24.0 0.00 0.00 0.00 38 1011.9
20260503200046 58 284 9.0 18.0 0.00 0.00 0.00 37 1012.2
20260503195105 57 298 9.0 26.0 0.00 0.00 0.00 39 1012.2
20260503194042 56 325 12.0 26.0 0.00 0.00 0.00 40 1012.3
20260503193055 56 324 8.0 17.0 0.00 0.00 0.00 39 1012.2
20260503192052 57 289 8.0 19.0 0.00 0.00 0.00 39 1012.3
20260503191047 56 324 8.0 21.0 0.00 0.00 0.00 41 1012.3
20260503190052 56 51 10.0 25.0 0.00 0.00 0.00 41 1012.3